This is the latest recevied weather packets stored in our database for station/object KC5TIL-3. If no packets are shown the sender has not sent any weather packets the latest 10 day(s).
| Time | Temp. | Humidity | Pressure | Rain* | Wind** | Luminosity | Snow |
|---|---|---|---|---|---|---|---|
| 1777574589 | 18.33° C | 79% | 1010.8 hPa | 0 mm | 2.68 m/s, 14° | - | - |
| 1777574287 | 18.33° C | 80% | 1010.8 hPa | 0 mm | 2.24 m/s, 62° | - | - |
| 1777573989 | 18.33° C | 80% | 1009.8 hPa | 0 mm | 1.79 m/s, 210° | - | - |
| 1777573686 | 18.33° C | 80% | 1009.8 hPa | 0 mm | 3.13 m/s, 48° | - | - |
| 1777573385 | 18.33° C | 80% | 1009.8 hPa | 0 mm | 1.79 m/s, 242° | - | - |
| 1777573088 | 18.33° C | 80% | 1010.8 hPa | 0 mm | 2.68 m/s, 9° | - | - |
| 1777572784 | 18.33° C | 81% | 1010.8 hPa | 0 mm | 2.68 m/s, 300° | - | - |
| 1777572478 | 18.89° C | 81% | 1010.8 hPa | 0 mm | 2.68 m/s, 351° | - | - |
| 1777571873 | 18.89° C | 82% | 1011.8 hPa | 0 mm | 1.79 m/s, 58° | - | - |
| 1777571572 | 18.89° C | 82% | 1011.8 hPa | 0 mm | 3.13 m/s, 61° | - | - |
| 1777571274 | 18.89° C | 83% | 1011.8 hPa | 0 mm | 1.79 m/s, 27° | - | - |
| 1777570976 | 18.89° C | 84% | 1011.8 hPa | 0 mm | 2.24 m/s, 293° | - | - |
| 1777570669 | 18.89° C | 84% | 1011.8 hPa | 0 mm | 2.24 m/s, 20° | - | - |
| 1777570073 | 18.89° C | 85% | 1011.8 hPa | 0 mm | 2.68 m/s, 313° | - | - |
| 1777569772 | 19.44° C | 85% | 1011.8 hPa | 0 mm | 1.34 m/s, 189° | - | - |
| 1777569474 | 18.89° C | 85% | 1010.8 hPa | 0 mm | 4.47 m/s, 105° | - | - |
| 1777569175 | 18.89° C | 86% | 1010.8 hPa | 0 mm | 5.36 m/s, 114° | - | - |
| 1777568571 | 19.44° C | 86% | 1010.8 hPa | 0 mm | 4.02 m/s, 114° | - | - |
| 1777568268 | 19.44° C | 86% | 1010.8 hPa | 0 mm | 3.58 m/s, 181° | - | - |
| 1777567967 | 18.89° C | 85% | 1010.8 hPa | 0 mm | 4.47 m/s, 96° | - | - |
| 1777567668 | 18.89° C | 85% | 1011.8 hPa | 0 mm | 4.92 m/s, 139° | - | - |
| 1777567370 | 18.89° C | 84% | 1011.8 hPa | 0 mm | 4.92 m/s, 93° | - | - |
| 1777567069 | 18.89° C | 83% | 1011.8 hPa | 0 mm | 3.13 m/s, 144° | - | - |
| 1777566467 | 18.33° C | 81% | 1012.8 hPa | 0 mm | 3.13 m/s, 122° | - | - |
| 1777566166 | 18.33° C | 79% | 1012.8 hPa | 0 mm | 0 m/s | - | - |
* Rain latest hour (hover to see other rain measurements)
** Current wind speed in m/s (hover to see current wind gust speed)